Regional Weather Roundup
Issued by NWS

Home | Current Version | Previous Version | Graphics & Text | Print | Product List | Glossary On
Versions: 1 2 3 4 5 6 7 8 9 10 11 12 13 14 15 16 17 18 19 20 21 22 23 24 25 26 27 28 29 30 31 32 33 34 35 36 37 38 39 40 41 42 43 44 45 46 47 48 49 50
000
ASUS43 KFSD 230302
RWRSD

WEATHER ROUNDUP FOR SOUTH DAKOTA
NATIONAL WEATHER SERVICE SIOUX FALLS SD
1000 PM CDT FRI AUG 22 2014

NOTE: "FAIR" INDICATES FEW OR NO CLOUDS BELOW 12,000 FEET WITH NO
SIGNIFICANT WEATHER AND/OR OBSTRUCTIONS TO VISIBILITY.


SDZ001>005-009-010-012>017-230400-
NORTHWEST AND NORTH CENTRAL SOUTH DAKOTA

CITY           SKY/WX    TMP DP  RH WIND       PRES   REMARKS
BUFFALO          N/A     67  60  78 E13       29.99S
FAITH            N/A     66  62  87 NE10      30.03R
MOBRIDGE       PTCLDY    69  66  90 NE8       30.00R
$$

SDZ012>016-024>037-041>051-057-063-072>074-230400-
SOUTHWEST AND SOUTH CENTRAL SOUTH DAKOTA

CITY           SKY/WX    TMP DP  RH WIND       PRES   REMARKS
RAPID CTY ARPT CLOUDY    67  63  87 CALM      30.01S
PIERRE         CLOUDY    70  64  81 E14       29.97R
ELLSWORTH AFB  CLOUDY    70  65  85 E10       30.01S
PHILIP         CLOUDY    73  64  73 E13       29.97R
PINE RIDGE     CLOUDY    69  57  65 SE5       30.01R
WINNER         MOCLDY    75  69  81 SE9       29.98R
$$

SDZ004>011-016>023-039-040-230400-
NORTHEAST SOUTH DAKOTA

CITY           SKY/WX    TMP DP  RH WIND       PRES   REMARKS
ABERDEEN       PTCLDY    69  67  93 NE8       30.02R
WATERTOWN      CLOUDY    71  68  90 NE9       30.02R
SISSETON         N/A     69  68  96 NE5       30.03R
$$

SDZ017-020-022-023-036>040-048>070-230400-
SOUTHEAST SOUTH DAKOTA

CITY           SKY/WX    TMP DP  RH WIND       PRES   REMARKS
SIOUX FALLS    CLOUDY    76  69  79 E7        30.00R
HURON          MOCLDY    76  69  79 E10       29.96S
CHAMBERLAIN    CLOUDY    73  68  87 NE8       29.98R
MITCHELL       MOCLDY    76  71  85 E6        29.97R
YANKTON        MOCLDY    73  72  94 E8        29.97R
$$

ABBREVIATIONS USED IN REMARKS
   TC - TEMPERATURE IN CELSIUS
  WCI - WIND CHILL INDEX
   HX - HEAT INDEX
  VSB - VISIBILITY




USA.gov is the U.S. government's official web portal to all federal, state and local government web resources and services.